Mobile, AL

11:31 PM CDT on July 20, 2017 (GMT -0500)
Mobile Regional

Weather History for KMOB - January, 2013

Change the Weather History Date:

Thursday, January 3, 2013

  Actual Average Record
Temperature  
Mean Temperature 43 °F 50 °F  
Max Temperature 49 °F 61 °F 79 °F (1989)
Min Temperature 36 °F 40 °F 16 °F (1887)
Degree Days  
Heating Degree Days 22 15  
Month to date heating degree days 39 45  
Since 1 July heating degree days 640 707  
Cooling Degree Days 0 0  
Month to date cooling degree days 0 0  
Year to date cooling degree days 0 0  
Moisture  
Dew Point 34 °F    
Average Humidity 71    
Maximum Humidity 92    
Minimum Humidity 50    
Precipitation  
Precipitation 0.33 in 0.16 in 2.15 in (1886)
Month to date precipitation 0.50 0.49  
Year to date precipitation 0.50 0.49  
Snow  
Snow 0.00 in 0.00 in T in (2002)
Month to date snowfall 0.0 0.0  
Since 1 July snowfall 0.0 T  
Snow Depth 0.00 in    
Sea Level Pressure  
Sea Level Pressure 30.27 in    
Wind  
Wind Speed 9 mph (North)    
Max Wind Speed 17 mph    
Max Gust Speed 21 mph    
Visibility 8 miles    
Events Rain    
T = Trace of Precipitation, MM = Missing Value Source: NWS Daily Summary

Daily Weather History Graph

Daily Weather History Graph

Search for Another Location

Airport or City:

Trip Planner

Search our weather history database for the weather conditions in past years. The results will help you decide how hot, cold, wet, or windy it might be!

Date:

Astronomy

Jan. 03, 2013 Rise Set
Actual Time 6:50 AM CST 5:04 PM CST
Civil Twilight 6:24 AM CST 5:30 PM CST
Nautical Twilight 5:54 AM CST 6:00 PM CST
Astronomical Twilight 5:25 AM CST 6:30 PM CST
Moon 11:10 PM CST (1/3) 10:28 AM CST (1/3)
Length of Visible Light 11h 06m
Length of Day
10h 13m
Waning Gibbous, 65% of the Moon is Illuminated
Jan 3
Waning Gibbous
Jan 4
Last Quarter
Jan 11
New
Jan 18
First Quarter
Jan 26
Full

Hourly Weather History & Observations

Time (CST) Temp. Windchill Dew Point Humidity Pressure Visibility Wind Dir Wind Speed Gust Speed Precip Events Conditions
12:12 AM 42.8 °F 38.0 °F 39.2 °F 87% 30.20 in 8.0 mi North 8.1 mph - 0.01 in Rain Rain
12:56 AM 42.1 °F 38.4 °F 39.0 °F 89% 30.20 in 8.0 mi North 5.8 mph - 0.11 in Rain Rain
1:14 AM 42.8 °F 38.6 °F 39.2 °F 87% 30.22 in 10.0 mi NNW 6.9 mph - 0.01 in Rain Light Rain
1:56 AM 41.0 °F 34.7 °F 37.9 °F 89% 30.22 in 10.0 mi North 10.4 mph - 0.02 in Rain Light Rain
2:03 AM 41.0 °F 33.5 °F 37.4 °F 87% 30.21 in 10.0 mi North 13.8 mph - 0.01 in Rain Light Rain
2:56 AM 39.9 °F 32.9 °F 37.0 °F 89% 30.20 in 10.0 mi North 11.5 mph - 0.04 in Rain Light Rain
3:12 AM 39.2 °F 32.5 °F 37.4 °F 93% 30.21 in 10.0 mi North 10.4 mph - 0.01 in Rain Light Rain
3:56 AM 39.9 °F 35.1 °F 37.0 °F 89% 30.21 in 9.0 mi North 6.9 mph - 0.04 in Rain Light Rain
4:29 AM 39.2 °F 34.2 °F 37.4 °F 93% 30.22 in 8.0 mi NNE 6.9 mph - 0.03 in Rain Rain
4:36 AM 39.2 °F 33.0 °F 37.4 °F 93% 30.22 in 9.0 mi North 9.2 mph - 0.03 in Rain Light Rain
4:56 AM 39.9 °F 33.4 °F 37.0 °F 89% 30.23 in 10.0 mi North 10.4 mph - 0.04 in Rain Light Rain
5:03 AM 39.2 °F 32.0 °F 37.4 °F 93% 30.24 in 10.0 mi North 11.5 mph - 0.01 in Rain Light Rain
5:34 AM 39.2 °F 33.6 °F 37.4 °F 93% 30.23 in 7.0 mi NNE 8.1 mph - 0.03 in Rain Light Rain
5:56 AM 39.9 °F 35.1 °F 37.0 °F 89% 30.24 in 7.0 mi North 6.9 mph - 0.03 in Rain Light Rain
5:59 AM 39.2 °F 34.2 °F 37.4 °F 93% 30.24 in 7.0 mi NNW 6.9 mph - 0.01 in Rain Light Rain
6:56 AM 39.9 °F 34.5 °F 37.0 °F 89% 30.27 in 4.0 mi North 8.1 mph - 0.05 in Rain Light Rain
7:10 AM 39.2 °F 34.2 °F 37.4 °F 93% 30.25 in 3.0 mi NE 6.9 mph - 0.00 in Rain Light Rain
7:46 AM 39.2 °F 32.0 °F 37.4 °F 93% 30.27 in 3.0 mi North 11.5 mph - 0.00 in   Overcast
7:56 AM 39.9 °F 33.4 °F 36.0 °F 86% 30.29 in 3.0 mi NNW 10.4 mph 19.6 mph 0.00 in   Overcast
8:14 AM 39.2 °F 32.5 °F 35.6 °F 87% 30.26 in 4.0 mi North 10.4 mph - N/A   Mostly Cloudy
8:56 AM 39.0 °F 30.6 °F 35.1 °F 86% 30.30 in 4.0 mi North 15.0 mph - N/A   Overcast
9:56 AM 39.9 °F 32.1 °F 34.0 °F 79% 30.31 in 10.0 mi North 13.8 mph - N/A   Overcast
10:56 AM 42.1 °F 34.9 °F 32.0 °F 67% 30.29 in 10.0 mi North 13.8 mph - N/A   Overcast
11:56 AM 43.0 °F 37.2 °F 33.1 °F 68% 30.27 in 10.0 mi North 10.4 mph - N/A   Overcast
12:56 PM 45.0 °F 39.3 °F 32.0 °F 60% 30.25 in 10.0 mi NNW 11.5 mph - N/A   Overcast
1:56 PM 45.0 °F 39.3 °F 32.0 °F 60% 30.25 in 10.0 mi NNW 11.5 mph - N/A   Mostly Cloudy
2:56 PM 48.0 °F - 30.9 °F 52% 30.25 in 10.0 mi North 11.5 mph - N/A   Mostly Cloudy
3:56 PM 46.0 °F 40.2 °F 30.0 °F 54% 30.27 in 10.0 mi North 12.7 mph - N/A   Mostly Cloudy
4:56 PM 44.1 °F 39.5 °F 30.0 °F 58% 30.30 in 10.0 mi North 8.1 mph - N/A   Mostly Cloudy
5:56 PM 42.1 °F 37.1 °F 28.9 °F 60% 30.32 in 10.0 mi North 8.1 mph - N/A   Scattered Clouds
6:56 PM 39.0 °F 34.8 °F 28.9 °F 67% 30.34 in 10.0 mi North 5.8 mph - N/A   Scattered Clouds
7:56 PM 37.0 °F 33.3 °F 28.0 °F 70% 30.35 in 10.0 mi North 4.6 mph - N/A   Scattered Clouds
8:56 PM 37.9 °F 32.7 °F 27.0 °F 65% 30.35 in 10.0 mi North 6.9 mph - N/A   Partly Cloudy
9:56 PM 37.0 °F 32.4 °F 26.1 °F 65% 30.37 in 10.0 mi North 5.8 mph - N/A   Clear
10:56 PM 37.0 °F 31.6 °F 26.1 °F 65% 30.38 in 10.0 mi North 6.9 mph - N/A   Clear
11:56 PM 37.0 °F 30.4 °F 25.0 °F 62% 30.36 in 10.0 mi North 9.2 mph - N/A   Clear